Location: Unspecified
(0.0000°N, 0.0000°E)
Time: 18:01:30
(UTC+00:00)

Courier 1B Rocket - Pass Details

Date: 12 April 2021
Orbit: 920 x 1202 km, 28.3° (Epoch: 14 May)

Event Time Altitude Azimuth Distance (km) Brightness Sun altitude
Rises 21:15:52 0° 280° (W) 3,827 8.8 -48.0°
Reaches altitude 10° 21:19:40 10° 300° (WNW) 2,929 8.0 -48.9°
Enters shadow 21:21:37 14° 314° (NW) 2,631 7.6 -49.4°
